Regional Weather Roundup
Issued by NWS

Home | Current Version | Previous Version | Text Only | Print | Product List | Glossary Off
Versions: 1 2 3 4 5 6 7 8 9 10 11 12 13 14 15 16 17 18 19 20 21 22 23 24 25 26 27 28 29 30 31 32 33 34 35 36 37 38 39 40 41 42 43 44 45 46 47 48 49 50

112
ASUS43 KFSD 041310
RWRSD

WEATHER ROUNDUP FOR SOUTH DAKOTA
NATIONAL WEATHER SERVICE SIOUX FALLS SD
700 AM CST SUN DEC 04 2016

NOTE: "FAIR" INDICATES FEW OR NO CLOUDS BELOW 12,000 FEET WITH NO
SIGNIFICANT WEATHER AND/OR OBSTRUCTIONS TO VISIBILITY.


SDZ001>005-009-010-012>017-041400-
NORTHWEST AND NORTH CENTRAL SOUTH DAKOTA

CITY           SKY/WX    TMP DP  RH WIND       PRES   REMARKS
BUFFALO          N/A     30  22  72 W17       29.76S WCI  18
FAITH            N/A     27  22  81 W14       29.83S WCI  16
MOBRIDGE       CLEAR     27  20  75 NW7       29.78F WCI  19
$$

SDZ012>016-024>037-041>051-057-063-072>074-041400-
SOUTHWEST AND SOUTH CENTRAL SOUTH DAKOTA

CITY           SKY/WX    TMP DP  RH WIND       PRES   REMARKS
RAPID CTY ARPT PTCLDY    22  16  78 NW8       29.88F WCI  12
PIERRE         MOCLDY    28  23  81 W8        29.86S WCI  20
CUSTER         CLOUDY    20  14  77 W6        29.86S WCI  12
ELLSWORTH AFB  PTCLDY    23  17  78 NW8       29.87S WCI  14
PHILIP         CLEAR     25  21  85 NW5       29.89S WCI  19
PINE RIDGE     MOCLDY    27  17  66 W7        29.94R WCI  19
SPEARFISH      CLOUDY    32  19  59 W8        29.87S WCI  25
WINNER         FAIR      33  24  69 W9        29.89S WCI  25
$$

SDZ004>011-016>023-039-040-041400-
NORTHEAST SOUTH DAKOTA

CITY           SKY/WX    TMP DP  RH WIND       PRES   REMARKS
ABERDEEN       CLEAR     29  27  92 SW9       29.79F WCI  20
WATERTOWN      MOCLDY    30  27  88 SW13      29.79S WCI  20
BROOKINGS      MOCLDY    30  29  96 SW12      29.83S WCI  20
SISSETON         N/A     34  29  82 SW9       29.77F WCI  27
$$

SDZ017-020-022-023-036>040-048>070-041400-
SOUTHEAST SOUTH DAKOTA

CITY           SKY/WX    TMP DP  RH WIND       PRES   REMARKS
SIOUX FALLS    CLOUDY    32  32 100 SW6       29.87F FOG     WCI  26
HURON          CLEAR     26  23  88 SW8       29.85R WCI  18
CHAMBERLAIN    CLEAR     31  26  81 W9        29.88S WCI  23
MITCHELL       CLEAR     31  26  82 W10       29.89R WCI  22
YANKTON          N/A     28  27  93 W5        29.90S VSB 1/2 WCI  23
$$

ABBREVIATIONS USED IN REMARKS
   TC - TEMPERATURE IN CELSIUS
  WCI - WIND CHILL INDEX
   HX - HEAT INDEX
  VSB - VISIBILITY





USA.gov is the U.S. government's official web portal to all federal, state and local government web resources and services.